Weather Roundup
Issued by NWS Springfield, MO

Home | Current Version | Previous Version | Text Only | Print | Product List | Glossary On
Versions: 1 2 3 4 5 6 7 8 9 10 11 12 13 14 15 16 17 18 19 20 21 22 23 24 25 26 27 28 29 30 31 32 33 34 35 36 37 38 39 40 41 42 43 44 45 46 47 48 49 50
000
NZUS99 KSGF 230007
HRRSGF

HOURLY WEATHER
NATIONAL WEATHER SERVICE SPRINGFIELD MO
600 PM CST WED FEB 22 2017

......SGF CWA......

CITY           SKY/WX    TMP DP  RH WIND       PRES   REMARKS
SPRINGFIELD    CLEAR     67  55  65 S8        29.71R
6HR MIN TEMP:  60; 6HR MAX TEMP:  72;

JOPLIN         CLEAR     70  42  36 W6        29.70S
6HR MIN TEMP:  70; 6HR MAX TEMP:  78;

WEST PLAINS    CLEAR     61  55  81 SE6       29.79R
6HR MIN TEMP:  61; 6HR MAX TEMP:  68;

ROLLA          CLEAR     61  52  72 S10       29.71R
6HR MIN TEMP:  58; 6HR MAX TEMP:  71; 6HR PCP: TRACE;

OSAGE BEACH    CLEAR     68  51  54 S10       29.70F
BRANSON        MOCLDY    68  55  64 SE8       29.74S

......SURROUNDING SGF CWA......

CITY           SKY/WX    TMP DP  RH WIND       PRES   REMARKS
CHANUTE        CLEAR     73  34  23 S10       29.67S
PARSONS        CLEAR     73  41  31 S6        29.69R
COFFEYVILLE    CLEAR     69  44  40 S7        29.68R
EMPORIA        MOCLDY    70  39  32 SW6       29.66S
GROVE OK       CLEAR     72  43  35 SW5       29.72R
ROGERS AR      CLEAR     69  45  41 S9        29.73F
SILOAM SPRINGS CLEAR     70  45  40 S13       29.72F
HARRISON AR    CLEAR     67  54  63 S10       29.74S
NEAR YELLVILLE CLEAR     66  52  59 SE8       29.73S

......KANSAS AND MISSOURI......

CITY           SKY/WX    TMP DP  RH WIND       PRES   REMARKS
KANSAS CTY INT CLOUDY    70  34  26 NW7       29.64R
DOWNTOWN KC    CLOUDY    75  35  23 NW3       29.63R
COLUMBIA       CLEAR     62  54  74 S7        29.68S
SEDALIA        CLEAR     71  46  40 SW8       29.68R
ST JOSEPH      CLOUDY    66  36  32 NW7       29.64R
ST LOUIS       MOCLDY    69  55  60 E5        29.70F
SPIRIT OF STL  PTCLDY    63  57  81 CALM      29.68F
KIRKSVILLE     CLEAR     67  45  45 SW7       29.64R
WICHITA        PTCLDY    69  48  47 S8        29.67S
TOPEKA         CLOUDY    68  40  35 CALM      29.64S
OLATHE         CLOUDY    72  35  25 W6        29.65R

......TENNESSEE......

CITY           SKY/WX    TMP DP  RH WIND       PRES   REMARKS
MEMPHIS        PTCLDY    71  55  56 S9        29.79S
NASHVILLE      MOCLDY    65  56  72 S3        29.85S

......ARKANSAS.......

CITY           SKY/WX    TMP DP  RH WIND       PRES   REMARKS
FAYETTEVILLE   CLEAR     66  51  58 S9        29.74S
FT SMITH       CLEAR     75  53  46 E3        29.72S
LITTLE ROCK    MOCLDY    60  57  89 SW7       29.80S

......OKLAHOMA.......

CITY           SKY/WX    TMP DP  RH WIND       PRES   REMARKS
TULSA          MOCLDY    75  45  34 SE7       29.67R
PONCA CITY     CLOUDY    70  41  34 CALM      29.67F
MCALESTER      PTCLDY    77  44  30 S7        29.72R
OKLAHOMA CITY  MOCLDY    72  41  32 SW8       29.70S

......IOWA............

CITY           SKY/WX    TMP DP  RH WIND       PRES   REMARKS
DES MOINES     PTCLDY    67  42  40 NW10      29.64R
QUAD CITIES    CLEAR     66  52  60 S15       29.57F

......ILLINOIS........

CITY           SKY/WX    TMP DP  RH WIND       PRES   REMARKS
QUINCY         CLEAR     59  54  83 S10       29.66R
CHICAGO        CLEAR     65  53  65 S16G26    29.60F



USA.gov is the U.S. government's official web portal to all federal, state and local government web resources and services.